Time,TemperatureF,DewpointF,PressureIn,WindDirection,WindDirectionDegrees,WindSpeedMPH,WindSpeedGustMPH,Humidity,HourlyPrecipIn,Conditions,Clouds,dailyrainin,SoftwareType,DateUTC
2013-10-16 00:01:00,38.5,25.9,30.68,SE,135,3.1,3.1,60,0.00,,,0.00,meteobridge,2013-10-16 07:01:00,
2013-10-16 00:07:00,38.1,25.5,30.68,South,180,1.6,1.6,60,0.00,,,0.00,meteobridge,2013-10-16 07:07:00,
2013-10-16 00:13:00,38.3,25.7,30.68,East,90,1.6,1.6,60,0.00,,,0.00,meteobridge,2013-10-16 07:13:00,
2013-10-16 00:19:00,38.3,26.1,30.68,East,90,1.6,2.2,61,0.00,,,0.00,meteobridge,2013-10-16 07:19:00,
2013-10-16 00:25:00,38.3,26.1,30.68,South,180,0.0,0.0,61,0.00,,,0.00,meteobridge,2013-10-16 07:25:00,
2013-10-16 00:31:00,38.1,25.9,30.68,South,180,0.0,0.0,61,0.00,,,0.00,meteobridge,2013-10-16 07:31:00,
2013-10-16 00:37:00,38.1,25.9,30.68,South,180,0.0,0.0,61,0.00,,,0.00,meteobridge,2013-10-16 07:37:00,
2013-10-16 00:43:00,37.4,25.5,30.68,South,180,0.0,0.0,62,0.00,,,0.00,meteobridge,2013-10-16 07:43:00,
2013-10-16 00:48:00,36.7,24.1,30.68,South,180,0.0,0.0,60,0.00,,,0.00,meteobridge,2013-10-16 07:48:00,
2013-10-16 00:54:00,36.3,24.1,30.68,South,180,0.0,0.0,61,0.00,,,0.00,meteobridge,2013-10-16 07:54:00,
2013-10-16 01:00:00,36.0,24.3,30.68,South,180,0.0,0.0,62,0.00,,,0.00,meteobridge,2013-10-16 08:00:00,
2013-10-16 01:06:00,36.0,24.3,30.68,South,180,0.0,0.0,62,0.00,,,0.00,meteobridge,2013-10-16 08:06:00,
2013-10-16 01:12:00,36.3,24.1,30.68,South,180,0.0,0.0,61,0.00,,,0.00,meteobridge,2013-10-16 08:12:00,
2013-10-16 01:18:00,36.3,24.1,30.68,South,180,1.6,1.6,61,0.00,,,0.00,meteobridge,2013-10-16 08:18:00,
2013-10-16 01:24:00,36.5,24.3,30.68,South,180,0.0,0.7,61,0.00,,,0.00,meteobridge,2013-10-16 08:24:00,
2013-10-16 01:30:00,36.0,23.9,30.68,South,180,0.0,0.0,61,0.00,,,0.00,meteobridge,2013-10-16 08:30:00,
2013-10-16 01:35:00,35.4,24.1,30.68,South,180,0.0,0.0,63,0.00,,,0.00,meteobridge,2013-10-16 08:35:00,
2013-10-16 01:41:00,34.9,23.9,30.68,South,180,0.0,0.0,64,0.00,,,0.00,meteobridge,2013-10-16 08:41:00,
2013-10-16 01:47:00,36.1,24.4,30.68,South,180,0.0,0.0,62,0.00,,,0.00,meteobridge,2013-10-16 08:47:00,
2013-10-16 01:53:00,34.9,23.9,30.68,South,180,0.0,0.0,64,0.00,,,0.00,meteobridge,2013-10-16 08:53:00,
2013-10-16 01:59:00,34.3,23.7,30.68,South,180,0.0,0.0,65,0.00,,,0.00,meteobridge,2013-10-16 08:59:00,
2013-10-16 02:05:00,34.2,23.5,30.68,South,180,0.0,0.0,65,0.00,,,0.00,meteobridge,2013-10-16 09:05:00,
2013-10-16 02:11:00,35.1,24.1,30.68,South,180,0.0,0.0,64,0.00,,,0.00,meteobridge,2013-10-16 09:11:00,
2013-10-16 02:17:00,35.1,24.1,30.68,South,180,0.0,0.0,64,0.00,,,0.00,meteobridge,2013-10-16 09:17:00,
2013-10-16 02:22:00,35.1,24.1,30.68,South,180,0.0,0.0,64,0.00,,,0.00,meteobridge,2013-10-16 09:22:00,
2013-10-16 02:28:00,35.1,24.1,30.68,South,180,0.0,0.0,64,0.00,,,0.00,meteobridge,2013-10-16 09:28:00,
2013-10-16 02:34:00,34.5,23.9,30.68,South,180,0.0,0.0,65,0.00,,,0.00,meteobridge,2013-10-16 09:34:00,
2013-10-16 02:40:00,35.2,24.3,30.67,South,180,0.0,0.0,64,0.00,,,0.00,meteobridge,2013-10-16 09:40:00,
2013-10-16 02:46:00,35.6,23.9,30.68,South,180,0.0,0.0,62,0.00,,,0.00,meteobridge,2013-10-16 09:46:00,
2013-10-16 02:52:00,35.6,23.5,30.67,South,180,0.0,0.0,61,0.00,,,0.00,meteobridge,2013-10-16 09:52:00,
2013-10-16 02:58:00,35.8,23.7,30.67,South,180,0.0,0.0,61,0.00,,,0.00,meteobridge,2013-10-16 09:58:00,
2013-10-16 03:04:00,36.1,24.1,30.67,South,180,0.0,0.0,61,0.00,,,0.00,meteobridge,2013-10-16 10:04:00,
2013-10-16 03:09:00,36.1,24.1,30.67,South,180,0.0,0.0,61,0.00,,,0.00,meteobridge,2013-10-16 10:09:00,
2013-10-16 03:15:00,36.1,24.1,30.67,South,180,0.0,0.0,61,0.00,,,0.00,meteobridge,2013-10-16 10:15:00,
2013-10-16 03:21:00,36.3,24.1,30.67,South,180,0.0,0.0,61,0.00,,,0.00,meteobridge,2013-10-16 10:21:00,
2013-10-16 03:27:00,36.3,24.1,30.67,South,180,0.0,0.0,61,0.00,,,0.00,meteobridge,2013-10-16 10:27:00,
2013-10-16 03:33:00,36.7,24.1,30.67,South,180,0.0,0.7,60,0.00,,,0.00,meteobridge,2013-10-16 10:33:00,
2013-10-16 03:39:00,36.7,23.7,30.67,South,180,0.0,0.7,59,0.00,,,0.00,meteobridge,2013-10-16 10:39:00,
2013-10-16 03:45:00,36.5,24.3,30.68,South,180,0.0,0.0,61,0.00,,,0.00,meteobridge,2013-10-16 10:45:00,
2013-10-16 03:51:00,36.3,24.1,30.68,South,180,0.0,0.0,61,0.00,,,0.00,meteobridge,2013-10-16 10:51:00,
2013-10-16 03:56:00,36.5,24.3,30.68,South,180,0.0,0.0,61,0.00,,,0.00,meteobridge,2013-10-16 10:56:00,
2013-10-16 04:02:00,36.1,24.1,30.68,South,180,0.0,0.0,61,0.00,,,0.00,meteobridge,2013-10-16 11:02:00,
2013-10-16 04:08:00,36.1,24.4,30.68,South,180,0.0,0.0,62,0.00,,,0.00,meteobridge,2013-10-16 11:08:00,
2013-10-16 04:14:00,36.5,24.8,30.68,South,180,0.0,0.0,62,0.00,,,0.00,meteobridge,2013-10-16 11:14:00,
2013-10-16 04:20:00,36.5,24.8,30.68,South,180,0.0,0.0,62,0.00,,,0.00,meteobridge,2013-10-16 11:20:00,
2013-10-16 04:26:00,36.0,24.3,30.68,South,180,0.0,0.0,62,0.00,,,0.00,meteobridge,2013-10-16 11:26:00,
2013-10-16 04:32:00,35.8,24.1,30.68,South,180,0.0,0.0,62,0.00,,,0.00,meteobridge,2013-10-16 11:32:00,
2013-10-16 04:38:00,36.1,24.4,30.68,South,180,0.0,0.0,62,0.00,,,0.00,meteobridge,2013-10-16 11:38:00,
2013-10-16 04:43:00,36.1,24.4,30.68,South,180,0.0,0.0,62,0.00,,,0.00,meteobridge,2013-10-16 11:43:00,
2013-10-16 04:49:00,36.1,24.4,30.68,South,180,0.0,0.0,62,0.00,,,0.00,meteobridge,2013-10-16 11:49:00,
2013-10-16 04:55:00,36.0,24.3,30.68,South,180,0.0,0.0,62,0.00,,,0.00,meteobridge,2013-10-16 11:55:00,
2013-10-16 05:01:00,35.8,24.1,30.68,South,180,0.0,0.0,62,0.00,,,0.00,meteobridge,2013-10-16 12:01:00,
2013-10-16 05:07:00,35.8,24.1,30.68,South,180,0.0,0.0,62,0.00,,,0.00,meteobridge,2013-10-16 12:07:00,
2013-10-16 05:13:00,35.2,24.6,30.69,South,180,0.0,0.0,65,0.00,,,0.00,meteobridge,2013-10-16 12:13:00,
2013-10-16 05:19:00,35.6,24.6,30.69,South,180,0.0,0.0,64,0.00,,,0.00,meteobridge,2013-10-16 12:19:00,
2013-10-16 05:25:00,35.6,24.3,30.69,South,180,0.0,0.0,63,0.00,,,0.00,meteobridge,2013-10-16 12:25:00,
2013-10-16 05:30:00,35.6,24.6,30.69,South,180,0.0,0.0,64,0.00,,,0.00,meteobridge,2013-10-16 12:30:00,
2013-10-16 05:36:00,35.4,24.8,30.69,South,180,0.0,0.0,65,0.00,,,0.00,meteobridge,2013-10-16 12:36:00,
2013-10-16 05:42:00,35.2,24.6,30.69,South,180,0.0,0.0,65,0.00,,,0.00,meteobridge,2013-10-16 12:42:00,
2013-10-16 05:48:00,35.2,24.6,30.69,West,270,0.0,0.0,65,0.00,,,0.00,meteobridge,2013-10-16 12:48:00,
2013-10-16 05:54:00,35.6,24.3,30.69,South,180,0.0,0.0,63,0.00,,,0.00,meteobridge,2013-10-16 12:54:00,
2013-10-16 06:00:00,35.4,24.4,30.69,South,180,0.0,0.0,64,0.00,,,0.00,meteobridge,2013-10-16 13:00:00,
2013-10-16 06:06:00,35.6,24.3,30.69,South,180,0.0,0.0,63,0.00,,,0.00,meteobridge,2013-10-16 13:06:00,
2013-10-16 06:12:00,35.6,23.9,30.69,South,180,0.7,0.7,62,0.00,,,0.00,meteobridge,2013-10-16 13:12:00,
2013-10-16 06:17:00,35.8,24.1,30.70,South,180,0.0,0.0,62,0.00,,,0.00,meteobridge,2013-10-16 13:17:00,
2013-10-16 06:23:00,35.6,23.9,30.70,South,180,0.0,0.0,62,0.00,,,0.00,meteobridge,2013-10-16 13:23:00,
2013-10-16 06:29:00,35.4,24.1,30.70,South,180,0.0,0.0,63,0.00,,,0.00,meteobridge,2013-10-16 13:29:00,
2013-10-16 06:35:00,35.6,23.9,30.71,South,180,0.0,0.0,62,0.00,,,0.00,meteobridge,2013-10-16 13:35:00,
2013-10-16 06:41:00,35.4,24.1,30.71,South,180,0.0,0.7,63,0.00,,,0.00,meteobridge,2013-10-16 13:41:00,
2013-10-16 06:47:00,35.6,23.9,30.71,South,180,0.0,0.0,62,0.00,,,0.00,meteobridge,2013-10-16 13:47:00,
2013-10-16 06:53:00,35.2,23.9,30.71,North,0,0.0,0.0,63,0.00,,,0.00,meteobridge,2013-10-16 13:53:00,
2013-10-16 06:59:00,35.8,24.1,30.71,South,180,0.0,0.0,62,0.00,,,0.00,meteobridge,2013-10-16 13:59:00,
2013-10-16 07:04:00,35.8,24.1,30.71,South,180,0.0,0.0,62,0.00,,,0.00,meteobridge,2013-10-16 14:04:00,
2013-10-16 07:10:00,36.0,24.3,30.71,South,180,0.0,0.0,62,0.00,,,0.00,meteobridge,2013-10-16 14:10:00,
2013-10-16 07:16:00,36.0,24.3,30.71,South,180,0.0,0.0,62,0.00,,,0.00,meteobridge,2013-10-16 14:16:00,
2013-10-16 07:22:00,36.1,24.4,30.72,South,180,0.0,0.0,62,0.00,,,0.00,meteobridge,2013-10-16 14:22:00,
2013-10-16 07:28:00,36.9,24.6,30.72,South,180,0.0,0.7,61,0.00,,,0.00,meteobridge,2013-10-16 14:28:00,
2013-10-16 07:34:00,36.9,24.6,30.72,South,180,0.0,0.0,61,0.00,,,0.00,meteobridge,2013-10-16 14:34:00,
2013-10-16 07:40:00,37.8,27.1,30.73,West,270,0.7,0.7,65,0.00,,,0.00,meteobridge,2013-10-16 14:40:00,
2013-10-16 07:45:00,37.8,26.6,30.73,South,180,0.0,0.0,64,0.00,,,0.00,meteobridge,2013-10-16 14:45:00,
2013-10-16 07:51:00,37.6,27.0,30.73,South,180,0.0,0.0,65,0.00,,,0.00,meteobridge,2013-10-16 14:51:00,
2013-10-16 07:57:00,38.5,27.3,30.73,South,180,0.0,0.7,64,0.00,,,0.00,meteobridge,2013-10-16 14:57:00,
2013-10-16 08:03:00,38.8,27.3,30.73,South,180,0.0,0.0,63,0.00,,,0.00,meteobridge,2013-10-16 15:03:00,
2013-10-16 08:09:00,38.8,27.3,30.74,South,180,0.0,0.0,63,0.00,,,0.00,meteobridge,2013-10-16 15:09:00,
2013-10-16 08:15:00,39.0,27.5,30.74,West,270,0.0,0.0,63,0.00,,,0.00,meteobridge,2013-10-16 15:15:00,
2013-10-16 08:21:00,39.4,27.5,30.74,South,180,0.0,0.0,62,0.00,,,0.00,meteobridge,2013-10-16 15:21:00,
2013-10-16 08:27:00,40.6,27.9,30.74,North,0,0.0,1.6,60,0.00,,,0.00,meteobridge,2013-10-16 15:27:00,
2013-10-16 08:32:00,41.5,27.5,30.75,West,270,0.0,0.7,57,0.00,,,0.00,meteobridge,2013-10-16 15:32:00,
2013-10-16 08:38:00,41.5,27.0,30.75,South,180,2.2,2.2,56,0.00,,,0.00,meteobridge,2013-10-16 15:38:00,
2013-10-16 08:44:00,41.7,27.1,30.76,South,180,0.0,0.7,56,0.00,,,0.00,meteobridge,2013-10-16 15:44:00,
2013-10-16 08:50:00,42.1,27.5,30.75,North,0,0.0,2.2,56,0.00,,,0.00,meteobridge,2013-10-16 15:50:00,
2013-10-16 08:56:00,42.4,27.5,30.75,SW,225,1.6,1.6,55,0.00,,,0.00,meteobridge,2013-10-16 15:56:00,
2013-10-16 09:02:00,42.8,26.8,30.75,SE,135,1.6,1.6,53,0.00,,,0.00,meteobridge,2013-10-16 16:02:00,
2013-10-16 09:08:00,43.5,27.1,30.75,East,90,1.6,2.2,52,0.00,,,0.00,meteobridge,2013-10-16 16:08:00,
2013-10-16 09:14:00,44.1,26.1,30.75,West,270,0.0,3.1,49,0.00,,,0.00,meteobridge,2013-10-16 16:14:00,
2013-10-16 09:19:00,43.9,27.0,30.76,West,270,2.2,3.1,51,0.00,,,0.00,meteobridge,2013-10-16 16:19:00,
2013-10-16 09:25:00,44.4,26.4,30.76,South,180,1.6,1.6,49,0.00,,,0.00,meteobridge,2013-10-16 16:25:00,
2013-10-16 09:31:00,44.6,25.7,30.76,North,0,1.6,1.6,47,0.00,,,0.00,meteobridge,2013-10-16 16:31:00,
2013-10-16 09:37:00,44.8,26.8,30.76,West,270,0.0,0.7,49,0.00,,,0.00,meteobridge,2013-10-16 16:37:00,
2013-10-16 09:43:00,44.8,27.7,30.76,North,0,0.7,0.7,51,0.00,,,0.00,meteobridge,2013-10-16 16:43:00,
2013-10-16 09:49:00,45.3,26.2,30.76,South,180,0.0,4.5,47,0.00,,,0.00,meteobridge,2013-10-16 16:49:00,
2013-10-16 09:55:00,45.3,25.7,30.75,South,180,1.6,1.6,46,0.00,,,0.00,meteobridge,2013-10-16 16:55:00,
2013-10-16 10:01:00,46.0,25.3,30.76,South,180,0.0,1.6,44,0.00,,,0.00,meteobridge,2013-10-16 17:01:00,
2013-10-16 10:06:00,46.2,25.5,30.76,West,270,0.0,0.0,44,0.00,,,0.00,meteobridge,2013-10-16 17:06:00,
2013-10-16 10:12:00,46.2,24.4,30.76,South,180,1.6,2.2,42,0.00,,,0.00,meteobridge,2013-10-16 17:12:00,
2013-10-16 10:18:00,46.4,26.2,30.76,North,0,0.7,2.2,45,0.00,,,0.00,meteobridge,2013-10-16 17:18:00,
2013-10-16 10:24:00,47.1,26.2,30.76,North,0,0.0,2.2,44,0.00,,,0.00,meteobridge,2013-10-16 17:24:00,
2013-10-16 10:30:00,47.5,26.1,30.76,East,90,1.6,2.2,43,0.00,,,0.00,meteobridge,2013-10-16 17:30:00,
2013-10-16 10:36:00,47.5,25.5,30.76,North,0,2.2,2.2,42,0.00,,,0.00,meteobridge,2013-10-16 17:36:00,
2013-10-16 10:42:00,47.8,25.9,30.76,South,180,0.0,0.0,42,0.00,,,0.00,meteobridge,2013-10-16 17:42:00,
2013-10-16 10:48:00,48.4,25.2,30.76,South,180,0.0,2.2,40,0.00,,,0.00,meteobridge,2013-10-16 17:48:00,
2013-10-16 10:53:00,48.9,25.7,30.76,East,90,0.7,0.7,40,0.00,,,0.00,meteobridge,2013-10-16 17:53:00,
2013-10-16 10:59:00,49.5,26.8,30.76,East,90,2.2,3.1,41,0.00,,,0.00,meteobridge,2013-10-16 17:59:00,
2013-10-16 11:05:00,49.6,26.2,30.76,East,90,0.0,0.0,40,0.00,,,0.00,meteobridge,2013-10-16 18:05:00,
2013-10-16 11:11:00,50.4,26.4,30.76,NE,45,1.6,1.6,39,0.00,,,0.00,meteobridge,2013-10-16 18:11:00,
2013-10-16 11:17:00,50.2,26.2,30.76,North,0,2.2,3.8,39,0.00,,,0.00,meteobridge,2013-10-16 18:17:00,
2013-10-16 11:23:00,50.2,26.2,30.76,North,0,0.0,0.7,39,0.00,,,0.00,meteobridge,2013-10-16 18:23:00,
2013-10-16 11:29:00,50.7,26.6,30.76,South,180,3.1,4.5,39,0.00,,,0.00,meteobridge,2013-10-16 18:29:00,
2013-10-16 11:32:00,51.1,28.2,30.76,SW,225,0.0,0.0,41,0.00,,,0.00,meteobridge,2013-10-16 18:32:00,
2013-10-16 11:38:00,50.5,26.4,30.76,North,0,0.0,3.8,39,0.00,,,0.00,meteobridge,2013-10-16 18:38:00,
2013-10-16 11:44:00,50.9,28.0,30.76,North,0,0.0,2.2,41,0.00,,,0.00,meteobridge,2013-10-16 18:44:00,
2013-10-16 11:50:00,51.3,28.4,30.76,North,0,3.1,4.5,41,0.00,,,0.00,meteobridge,2013-10-16 18:50:00,
2013-10-16 11:56:00,51.1,25.0,30.76,North,0,1.6,3.8,36,0.00,,,0.00,meteobridge,2013-10-16 18:56:00,
2013-10-16 12:02:00,51.6,25.5,30.76,North,0,3.1,4.5,36,0.00,,,0.00,meteobridge,2013-10-16 19:02:00,
2013-10-16 12:07:00,51.8,23.5,30.76,North,0,0.7,2.2,33,0.00,,,0.00,meteobridge,2013-10-16 19:07:00,
2013-10-16 12:13:00,52.3,24.8,30.75,NE,45,3.8,3.8,34,0.00,,,0.00,meteobridge,2013-10-16 19:13:00,
2013-10-16 12:19:00,53.1,28.8,30.75,South,180,0.0,0.7,39,0.00,,,0.00,meteobridge,2013-10-16 19:19:00,
2013-10-16 12:25:00,53.4,27.9,30.75,South,180,0.0,0.0,37,0.00,,,0.00,meteobridge,2013-10-16 19:25:00,
2013-10-16 12:31:00,54.0,27.7,30.75,North,0,6.9,6.9,36,0.00,,,0.00,meteobridge,2013-10-16 19:31:00,
2013-10-16 12:37:00,54.0,26.2,30.75,North,0,2.2,4.5,34,0.00,,,0.00,meteobridge,2013-10-16 19:37:00,
2013-10-16 12:43:00,53.2,24.8,30.75,North,0,3.1,3.8,33,0.00,,,0.00,meteobridge,2013-10-16 19:43:00,
2013-10-16 12:49:00,53.4,25.7,30.74,North,0,3.8,3.8,34,0.00,,,0.00,meteobridge,2013-10-16 19:49:00,
2013-10-16 12:54:00,54.0,24.8,30.75,North,0,2.2,2.2,32,0.00,,,0.00,meteobridge,2013-10-16 19:54:00,
2013-10-16 13:00:00,53.4,24.3,30.75,West,270,0.0,3.8,32,0.00,,,0.00,meteobridge,2013-10-16 20:00:00,
2013-10-16 13:06:00,53.4,24.3,30.74,West,270,0.0,0.0,32,0.00,,,0.00,meteobridge,2013-10-16 20:06:00,
2013-10-16 13:12:00,54.0,24.8,30.74,North,0,2.2,3.8,32,0.00,,,0.00,meteobridge,2013-10-16 20:12:00,
2013-10-16 13:18:00,54.5,24.4,30.74,West,270,4.5,4.5,31,0.00,,,0.00,meteobridge,2013-10-16 20:18:00,
2013-10-16 13:24:00,54.5,22.8,30.74,North,0,4.5,4.5,29,0.00,,,0.00,meteobridge,2013-10-16 20:24:00,
2013-10-16 13:30:00,54.1,23.4,30.74,South,180,4.5,6.0,30,0.00,,,0.00,meteobridge,2013-10-16 20:30:00,
2013-10-16 13:36:00,53.8,22.3,30.74,East,90,1.6,1.6,29,0.00,,,0.00,meteobridge,2013-10-16 20:36:00,
2013-10-16 13:41:00,54.1,21.7,30.74,East,90,0.0,2.2,28,0.00,,,0.00,meteobridge,2013-10-16 20:41:00,
2013-10-16 13:47:00,54.7,24.6,30.74,South,180,0.0,2.2,31,0.00,,,0.00,meteobridge,2013-10-16 20:47:00,
2013-10-16 13:53:00,55.4,24.4,30.73,East,90,1.6,3.1,30,0.00,,,0.00,meteobridge,2013-10-16 20:53:00,
2013-10-16 13:59:00,54.9,23.2,30.74,East,90,0.0,3.8,29,0.00,,,0.00,meteobridge,2013-10-16 20:59:00,
2013-10-16 14:05:00,55.2,23.5,30.73,South,180,0.7,2.2,29,0.00,,,0.00,meteobridge,2013-10-16 21:05:00,
2013-10-16 14:11:00,55.4,24.4,30.73,South,180,3.8,3.8,30,0.00,,,0.00,meteobridge,2013-10-16 21:11:00,
2013-10-16 14:17:00,54.9,22.3,30.74,North,0,2.2,3.8,28,0.00,,,0.00,meteobridge,2013-10-16 21:17:00,
2013-10-16 14:23:00,55.8,24.8,30.73,North,0,1.6,1.6,30,0.00,,,0.00,meteobridge,2013-10-16 21:23:00,
2013-10-16 14:28:00,55.0,23.4,30.73,North,0,3.8,3.8,29,0.00,,,0.00,meteobridge,2013-10-16 21:28:00,
2013-10-16 14:34:00,55.4,25.3,30.73,East,90,1.6,2.2,31,0.00,,,0.00,meteobridge,2013-10-16 21:34:00,
2013-10-16 14:40:00,57.6,26.4,30.74,North,0,2.2,2.2,30,0.00,,,0.00,meteobridge,2013-10-16 21:40:00,
2013-10-16 14:46:00,57.7,28.0,30.74,West,270,0.0,0.0,32,0.00,,,0.00,meteobridge,2013-10-16 21:46:00,
2013-10-16 14:52:00,56.5,23.7,30.73,NW,315,5.4,5.4,28,0.00,,,0.00,meteobridge,2013-10-16 21:52:00,
2013-10-16 14:58:00,56.3,23.5,30.73,North,0,0.7,0.7,28,0.00,,,0.00,meteobridge,2013-10-16 21:58:00,
2013-10-16 15:04:00,56.1,22.6,30.73,North,0,3.1,3.1,27,0.00,,,0.00,meteobridge,2013-10-16 22:04:00,
2013-10-16 15:10:00,55.8,23.9,30.73,North,0,1.6,2.2,29,0.00,,,0.00,meteobridge,2013-10-16 22:10:00,
2013-10-16 15:15:00,56.3,26.1,30.73,North,0,0.7,0.7,31,0.00,,,0.00,meteobridge,2013-10-16 22:15:00,
2013-10-16 15:21:00,55.2,25.2,30.73,East,90,0.0,1.6,31,0.00,,,0.00,meteobridge,2013-10-16 22:21:00,
2013-10-16 15:27:00,55.6,25.3,30.73,East,90,0.0,0.0,31,0.00,,,0.00,meteobridge,2013-10-16 22:27:00,
2013-10-16 15:33:00,55.4,25.3,30.73,South,180,2.2,4.5,31,0.00,,,0.00,meteobridge,2013-10-16 22:33:00,
2013-10-16 15:39:00,59.7,28.2,30.73,South,180,1.6,1.6,30,0.00,,,0.00,meteobridge,2013-10-16 22:39:00,
2013-10-16 15:45:00,59.9,25.9,30.73,North,0,0.0,0.0,27,0.00,,,0.00,meteobridge,2013-10-16 22:45:00,
2013-10-16 15:51:00,57.0,23.4,30.73,North,0,0.7,0.7,27,0.00,,,0.00,meteobridge,2013-10-16 22:51:00,
2013-10-16 15:57:00,58.5,23.7,30.73,North,0,0.0,1.6,26,0.00,,,0.00,meteobridge,2013-10-16 22:57:00,
2013-10-16 16:02:00,57.7,22.1,30.73,North,0,2.2,2.2,25,0.00,,,0.00,meteobridge,2013-10-16 23:02:00,
2013-10-16 16:08:00,56.3,21.9,30.73,South,180,1.6,1.6,26,0.00,,,0.00,meteobridge,2013-10-16 23:08:00,
2013-10-16 16:14:00,54.5,22.8,30.73,South,180,0.0,0.0,29,0.00,,,0.00,meteobridge,2013-10-16 23:14:00,
2013-10-16 16:20:00,54.0,24.1,30.73,South,180,0.0,0.7,31,0.00,,,0.00,meteobridge,2013-10-16 23:20:00,
2013-10-16 16:26:00,54.3,21.0,30.73,North,0,0.0,0.0,27,0.00,,,0.00,meteobridge,2013-10-16 23:26:00,
2013-10-16 16:32:00,52.9,25.3,30.73,South,180,0.0,0.0,34,0.00,,,0.00,meteobridge,2013-10-16 23:32:00,
2013-10-16 16:38:00,53.1,26.8,30.73,North,0,0.0,0.0,36,0.00,,,0.00,meteobridge,2013-10-16 23:38:00,
2013-10-16 16:44:00,52.5,27.7,30.73,South,180,0.0,0.0,38,0.00,,,0.00,meteobridge,2013-10-16 23:44:00,
2013-10-16 16:49:00,52.3,24.1,30.73,East,90,0.0,0.0,33,0.00,,,0.00,meteobridge,2013-10-16 23:49:00,
2013-10-16 16:55:00,52.2,23.9,30.73,South,180,0.0,0.0,33,0.00,,,0.00,meteobridge,2013-10-16 23:55:00,
2013-10-16 17:01:00,51.8,25.0,30.73,East,90,0.0,0.0,35,0.00,,,0.00,meteobridge,2013-10-17 00:01:00,
2013-10-16 17:07:00,51.6,25.5,30.73,South,180,0.0,0.0,36,0.00,,,0.00,meteobridge,2013-10-17 00:07:00,
2013-10-16 17:13:00,51.3,25.2,30.73,North,0,0.0,0.0,36,0.00,,,0.00,meteobridge,2013-10-17 00:13:00,
2013-10-16 17:19:00,50.0,28.4,30.73,South,180,0.0,0.0,43,0.00,,,0.00,meteobridge,2013-10-17 00:19:00,
2013-10-16 17:25:00,49.5,28.4,30.73,South,180,0.0,0.0,44,0.00,,,0.00,meteobridge,2013-10-17 00:25:00,
2013-10-16 17:31:00,49.3,27.1,30.73,South,180,0.0,0.0,42,0.00,,,0.00,meteobridge,2013-10-17 00:31:00,
2013-10-16 17:36:00,48.9,26.2,30.73,South,180,0.0,0.0,41,0.00,,,0.00,meteobridge,2013-10-17 00:36:00,
2013-10-16 17:42:00,48.4,26.4,30.73,South,180,0.0,1.6,42,0.00,,,0.00,meteobridge,2013-10-17 00:42:00,
2013-10-16 17:48:00,47.8,27.5,30.73,South,180,0.0,0.0,45,0.00,,,0.00,meteobridge,2013-10-17 00:48:00,
2013-10-16 17:54:00,47.1,27.3,30.73,South,180,0.0,0.0,46,0.00,,,0.00,meteobridge,2013-10-17 00:54:00,
2013-10-16 18:00:00,46.9,26.8,30.73,South,180,0.0,0.0,45,0.00,,,0.00,meteobridge,2013-10-17 01:00:00,
2013-10-16 18:06:00,46.4,26.8,30.73,South,180,0.0,0.0,46,0.00,,,0.00,meteobridge,2013-10-17 01:06:00,
2013-10-16 18:12:00,46.4,25.2,30.73,South,180,0.0,0.0,43,0.00,,,0.00,meteobridge,2013-10-17 01:12:00,
2013-10-16 18:18:00,46.0,24.8,30.73,South,180,0.0,0.0,43,0.00,,,0.00,meteobridge,2013-10-17 01:18:00,
2013-10-16 18:23:00,45.3,26.2,30.74,South,180,0.0,0.0,47,0.00,,,0.00,meteobridge,2013-10-17 01:23:00,
2013-10-16 18:29:00,44.1,26.6,30.74,South,180,0.0,0.0,50,0.00,,,0.00,meteobridge,2013-10-17 01:29:00,
2013-10-16 18:35:00,43.3,25.5,30.74,South,180,0.0,0.0,49,0.00,,,0.00,meteobridge,2013-10-17 01:35:00,
2013-10-16 18:41:00,42.6,27.1,30.74,South,180,0.0,0.0,54,0.00,,,0.00,meteobridge,2013-10-17 01:41:00,
2013-10-16 18:47:00,42.3,26.4,30.74,South,180,0.0,0.0,53,0.00,,,0.00,meteobridge,2013-10-17 01:47:00,
2013-10-16 18:53:00,42.1,24.8,30.74,South,180,0.0,0.0,50,0.00,,,0.00,meteobridge,2013-10-17 01:53:00,
2013-10-16 18:59:00,41.9,23.2,30.74,South,180,0.0,0.0,47,0.00,,,0.00,meteobridge,2013-10-17 01:59:00,
2013-10-16 19:05:00,41.5,23.7,30.74,South,180,0.0,0.0,49,0.00,,,0.00,meteobridge,2013-10-17 02:05:00,
2013-10-16 19:10:00,42.1,25.7,30.74,South,180,0.0,0.0,52,0.00,,,0.00,meteobridge,2013-10-17 02:10:00,
2013-10-16 19:16:00,41.7,25.9,30.74,South,180,0.0,0.0,53,0.00,,,0.00,meteobridge,2013-10-17 02:16:00,
2013-10-16 19:22:00,41.0,25.7,30.74,South,180,0.0,0.0,54,0.00,,,0.00,meteobridge,2013-10-17 02:22:00,
2013-10-16 19:28:00,42.6,27.5,30.74,South,180,0.0,1.6,55,0.00,,,0.00,meteobridge,2013-10-17 02:28:00,
2013-10-16 19:34:00,42.4,27.9,30.74,South,180,0.0,0.0,56,0.00,,,0.00,meteobridge,2013-10-17 02:34:00,
2013-10-16 19:40:00,41.5,27.0,30.74,South,180,0.0,0.0,56,0.00,,,0.00,meteobridge,2013-10-17 02:40:00,
2013-10-16 19:46:00,42.3,28.6,30.74,South,180,0.0,0.0,58,0.00,,,0.00,meteobridge,2013-10-17 02:46:00,
2013-10-16 19:51:00,43.3,27.3,30.74,South,180,0.0,0.0,53,0.00,,,0.00,meteobridge,2013-10-17 02:51:00,
2013-10-16 19:57:00,43.7,26.8,30.74,South,180,0.0,0.0,51,0.00,,,0.00,meteobridge,2013-10-17 02:57:00,
2013-10-16 20:03:00,43.3,27.0,30.74,South,180,0.0,0.0,52,0.00,,,0.00,meteobridge,2013-10-17 03:03:00,
2013-10-16 20:09:00,42.6,25.7,30.74,South,180,0.0,0.0,51,0.00,,,0.00,meteobridge,2013-10-17 03:09:00,
2013-10-16 20:15:00,42.3,25.0,30.74,South,180,0.0,0.0,50,0.00,,,0.00,meteobridge,2013-10-17 03:15:00,
2013-10-16 20:21:00,43.2,26.2,30.75,South,180,0.0,0.0,51,0.00,,,0.00,meteobridge,2013-10-17 03:21:00,
2013-10-16 20:27:00,43.7,25.3,30.75,South,180,0.0,0.0,48,0.00,,,0.00,meteobridge,2013-10-17 03:27:00,
2013-10-16 20:33:00,43.9,25.9,30.75,South,180,0.0,0.0,49,0.00,,,0.00,meteobridge,2013-10-17 03:33:00,
2013-10-16 20:38:00,44.1,25.2,30.74,South,180,0.0,0.0,47,0.00,,,0.00,meteobridge,2013-10-17 03:38:00,
2013-10-16 20:44:00,44.4,23.9,30.75,South,180,0.0,0.0,44,0.00,,,0.00,meteobridge,2013-10-17 03:44:00,
2013-10-16 20:50:00,45.0,23.2,30.75,SE,135,2.2,2.2,42,0.00,,,0.00,meteobridge,2013-10-17 03:50:00,
2013-10-16 20:56:00,45.3,23.0,30.75,South,180,1.6,2.2,41,0.00,,,0.00,meteobridge,2013-10-17 03:56:00,
2013-10-16 21:01:00,45.0,23.2,30.75,South,180,0.0,0.0,42,0.00,,,0.00,meteobridge,2013-10-17 04:01:00,
2013-10-16 21:02:00,45.0,23.2,30.75,South,180,0.0,0.0,42,0.00,,,0.00,meteobridge,2013-10-17 04:02:00,
2013-10-16 21:03:00,45.0,23.2,30.75,South,180,0.0,0.0,42,0.00,,,0.00,meteobridge,2013-10-17 04:03:00,
2013-10-16 21:06:00,45.0,23.2,30.75,South,180,0.0,0.0,42,0.00,,,0.00,meteobridge,2013-10-17 04:06:00,
2013-10-16 21:09:00,45.0,23.7,30.75,South,180,0.0,0.7,43,0.00,,,0.00,meteobridge,2013-10-17 04:09:00,
2013-10-16 21:15:00,44.6,23.5,30.75,South,180,0.0,0.0,43,0.00,,,0.00,meteobridge,2013-10-17 04:15:00,
2013-10-16 21:18:00,44.2,24.8,30.75,South,180,0.0,0.0,46,0.00,,,0.00,meteobridge,2013-10-17 04:18:00,
2013-10-16 21:24:00,41.9,26.4,30.75,South,180,0.0,0.0,54,0.00,,,0.00,meteobridge,2013-10-17 04:24:00,
2013-10-16 21:30:00,41.5,26.6,30.75,South,180,0.0,0.0,55,0.00,,,0.00,meteobridge,2013-10-17 04:30:00,
2013-10-16 21:36:00,43.7,27.1,30.75,South,180,0.0,0.0,52,0.00,,,0.00,meteobridge,2013-10-17 04:36:00,
2013-10-16 21:42:00,43.3,27.0,30.74,South,180,0.0,0.0,52,0.00,,,0.00,meteobridge,2013-10-17 04:42:00,
2013-10-16 21:48:00,44.4,25.9,30.75,South,180,0.0,0.0,48,0.00,,,0.00,meteobridge,2013-10-17 04:48:00,
2013-10-16 21:54:00,44.2,25.3,30.75,South,180,0.0,0.0,47,0.00,,,0.00,meteobridge,2013-10-17 04:54:00,
2013-10-16 22:00:00,43.3,26.4,30.75,South,180,0.0,0.0,51,0.00,,,0.00,meteobridge,2013-10-17 05:00:00,
2013-10-16 22:05:00,42.6,26.6,30.74,South,180,0.0,0.0,53,0.00,,,0.00,meteobridge,2013-10-17 05:05:00,
2013-10-16 22:11:00,42.1,26.6,30.75,South,180,0.0,0.0,54,0.00,,,0.00,meteobridge,2013-10-17 05:11:00,
2013-10-16 22:17:00,42.8,26.4,30.75,South,180,0.0,0.0,52,0.00,,,0.00,meteobridge,2013-10-17 05:17:00,
2013-10-16 22:23:00,42.8,26.4,30.74,South,180,0.0,0.0,52,0.00,,,0.00,meteobridge,2013-10-17 05:23:00,
2013-10-16 22:29:00,43.2,25.3,30.74,South,180,0.0,0.0,49,0.00,,,0.00,meteobridge,2013-10-17 05:29:00,
2013-10-16 22:35:00,43.9,23.4,30.74,South,180,0.0,0.0,44,0.00,,,0.00,meteobridge,2013-10-17 05:35:00,
2013-10-16 22:41:00,44.2,22.6,30.74,South,180,0.0,0.0,42,0.00,,,0.00,meteobridge,2013-10-17 05:41:00,
2013-10-16 22:47:00,43.7,23.2,30.74,South,180,0.0,0.0,44,0.00,,,0.00,meteobridge,2013-10-17 05:47:00,
2013-10-16 22:52:00,43.7,23.7,30.74,South,180,0.0,0.0,45,0.00,,,0.00,meteobridge,2013-10-17 05:52:00,
2013-10-16 22:58:00,43.0,25.2,30.74,South,180,0.0,0.0,49,0.00,,,0.00,meteobridge,2013-10-17 05:58:00,
2013-10-16 23:04:00,43.0,25.2,30.74,South,180,0.0,0.0,49,0.00,,,0.00,meteobridge,2013-10-17 06:04:00,
2013-10-16 23:10:00,41.5,25.7,30.74,South,180,0.0,0.0,53,0.00,,,0.00,meteobridge,2013-10-17 06:10:00,
2013-10-16 23:16:00,40.8,24.1,30.74,South,180,0.0,0.0,51,0.00,,,0.00,meteobridge,2013-10-17 06:16:00,
2013-10-16 23:22:00,40.6,24.8,30.74,South,180,0.0,0.0,53,0.00,,,0.00,meteobridge,2013-10-17 06:22:00,
2013-10-16 23:28:00,40.8,25.0,30.74,South,180,0.0,0.0,53,0.00,,,0.00,meteobridge,2013-10-17 06:28:00,
2013-10-16 23:34:00,41.0,25.7,30.74,South,180,0.0,0.0,54,0.00,,,0.00,meteobridge,2013-10-17 06:34:00,
2013-10-16 23:39:00,40.6,25.3,30.74,South,180,0.0,0.0,54,0.00,,,0.00,meteobridge,2013-10-17 06:39:00,
2013-10-16 23:45:00,40.8,25.0,30.74,South,180,0.0,0.0,53,0.00,,,0.00,meteobridge,2013-10-17 06:45:00,
2013-10-16 23:51:00,41.7,25.9,30.74,South,180,0.0,0.0,53,0.00,,,0.00,meteobridge,2013-10-17 06:51:00,
2013-10-16 23:57:00,42.1,25.7,30.75,South,180,0.0,0.0,52,0.00,,,0.00,meteobridge,2013-10-17 06:57:00,